Wind_Speed
10 11 11 12 11 11 10 10 9 8 8 9 8 4 4 5 14 30 22 17 18 20 17 10 9 15 5 4 6 5 4 4 5 7 5 8 9 7 3 9 7 10 11 19 12
9 10 11 12 11 10 10 9 9 10 11 10 9 8 3 1 4 24 26 21 17 20 15 14 7 14 5 5 5 5 4 6 4 3 3 8 8 5 7 10 9 17 22 28 29
9 10 10 12 11 9 9 8 7 11 13 12 9 9 5 3 4 8 30 20 19 19 13 9 11 2 7 5 6 4 3 5 7 6 7 5 10 6 4 8 8 10 15 21 25
8 9 10 11 12 8 7 6 4 10 12 13 10 6 7 4 4 15 25 20 20 20 13 12 3 3 4 7 5 6 5 5 6 6 5 7 2 9 7 4 3 9 12 18 19
8 8 10 11 12 8 6 5 3 8 9 10 12 7 3 7 3 19 17 19 17 19 22 6 8 4 4 4 5 6 4 4 6 5 4 7 8 7 6 5 9 12 15 15 18
8 8 9 11 13 9 5 5 4 6 7 3 12 11 4 7 9 15 13 17 19 21 16 11 4 3 5 5 5 3 4 4 7 7 4 6 5 4 4 4 8 8 9 11 15
7 8 9 10 11 8 6 7 4 5 8 7 7 7 14 3 6 16 14 9 13 13 5 8 10 7 3 2 4 2 4 1 7 9 3 2 6 6 8 5 8 8 7 9 13
7 9 9 9 8 7 3 10 6 3 7 6 7 7 5 8 7 19 19 4 7 7 6 6 7 3 4 1 1 2 3 4 4 8 5 3 1 6 9 7 7 7 7 7 11
7 9 10 10 9 7 2 10 10 3 8 6 3 5 3 5 9 18 15 9 11 7 7 7 3 5 8 3 5 7 3 6 1 5 5 5 3 4 9 8 7 7 7 6 6
8 9 10 11 10 5 2 4 11 5 5 4 7 5 5 5 10 18 12 11 5 11 5 7 6 4 7 8 1 5 4 6 4 7 7 5 4 3 7 8 6 7 8 7 6
8 9 10 11 12 4 2 1 2 5 14 4 2 4 2 12 3 19 15 13 1 5 4 6 10 5 5 4 2 2 4 6 5 4 5 1 4 5 5 6 7 7 7 7 7
8 9 9 7 7 3 3 5 4 5 6 7 3 4 1 6 5 16 18 6 7 5 2 6 5 5 7 6 5 1 4 5 7 5 4 4 2 4 5 3 4 5 6 7 6
7 8 10 3 4 8 11 6 7 4 5 3 1 3 3 7 4 8 8 5 5 7 8 6 2 7 3 7 6 5 3 4 5 8 3 3 4 4 3 4 5 6 5 5 5
7 7 8 1 1 3 3 3 2 2 5 6 4 3 2 1 4 3 5 1 6 3 3 5 5 5 5 3 4 1 2 4 6 5 2 3 3 4 4 5 4 4 5 4 6
5 6 4 6 3 3 1 1 1 2 4 1 4 3 3 5 2 7 6 5 4 4 3 2 5 5 4 3 4 4 6 5 3 4 3 5 4 5 5 3 2 3 4 3 4
4 5 1 2 3 3 4 2 1 6 4 3 3 3 2 5 3 4 5 6 2 3 5 2 0 2 2 5 4 7 3 2 1 1 3 4 4 3 3 3 2 2 3 2 4
3 3 1 2 3 4 4 3 5 4 4 1 1 2 1 3 4 4 4 6 3 5 4 6 2 1 3 4 5 7 5 3 5 5 3 3 3 6 3 2 2 1 1 2 4
3 1 3 3 5 4 3 5 3 2 5 3 2 1 1 1 2 4 3 3 6 5 3 3 6 5 7 1 1 4 3 3 3 3 4 6 3 4 2 4 4 4 2 4 4
5 1 1 3 4 3 4 4 6 6 5 7 3 4 3 1 3 3 3 2 1 2 5 3 4 2 3 2 2 6 5 3 4 2 1 4 4 1 1 5 6 5 4 4 5
6 3 2 4 4 2 4 5 4 3 3 3 5 3 3 3 3 4 1 1 2 1 2 3 3 2 2 1 3 3 2 4 3 3 4 5 5 4 3 0 3 2 2 2 3
6 1 4 6 5 4 3 5 4 2 2 4 4 4 2 4 3 4 3 1 3 3 4 4 3 4 2 0 3 3 3 1 2 2 3 2 6 5 5 3 2 2 2 1 1
7 1 4 8 3 1 4 6 5 4 1 2 4 3 5 5 2 1 6 2 4 5 3 5 4 2 6 4 2 2 2 2 3 4 1 3 6 2 5 4 2 5 4 3 0
4 3 2 1 4 2 3 1 2 5 5 6 5 3 1 4 3 2 4 4 3 3 3 4 1 3 7 5 4 2 3 2 4 3 4 4 6 2 4 5 5 6 6 3 5
2 3 1 0 1 6 6 4 5 1 4 3 4 4 3 3 3 5 2 3 1 1 2 4 2 6 5 5 4 3 3 5 6 3 3 6 8 6 7 6 7 7 5 6 7
2 5 4 6 4 5 6 9 7 7 2 3 0 5 7 3 3 4 4 3 1 3 2 3 3 2 5 5 3 5 6 7 8 6 6 5 6 12 8 9 7 5 3 6 7
5 3 1 2 9 9 8 8 11 6 9 6 5 10 7 6 7 8 6 5 5 3 4 1 2 2 5 2 1 5 8 9 4 3 10 13 20 12 7 3 3 6 5 7 8
8 3 2 6 4 11 8 9 12 12 5 3 9 6 6 5 6 4 4 6 7 7 6 5 4 3 5 2 3 5 7 11 4 5 7 6 11 4 3 4 4 6 7 8 8
Wind_Direction
32 25 22 20 16 20 22 26 27 29 24 16 25 5 273 21 56 38 33 345 338 358 7 7 25 348 26 25 39 19 56 29 17 21 322 342 11 350 27 48 53 19 22 347 330
30 27 24 19 13 14 31 32 41 35 15 12 16 15 39 5 80 38 358 359 11 5 0 1 328 348 23 19 17 50 68 29 25 45 344 0 37 3 44 30 356 356 11 6 17
34 21 23 13 12 16 26 38 39 28 22 27 46 48 41 351 74 355 350 5 17 13 355 310 296 275 43 45 356 33 55 344 17 13 356 349 56 16 24 38 14 356 4 11 23
33 21 19 15 7 7 28 46 36 19 24 27 31 10 7 16 71 339 345 2 24 16 33 23 339 40 74 60 352 83 37 42 344 336 354 347 40 55 65 151 103 45 30 35 25
22 16 15 12 7 12 19 24 358 355 14 32 28 358 39 47 46 351 353 8 32 29 30 10 33 31 77 72 32 65 46 34 0 15 62 36 62 110 89 145 97 67 41 45 33
11 12 12 10 7 7 32 44 4 12 17 56 34 54 58 68 3 355 1 18 26 28 20 29 3 326 73 44 65 12 10 13 3 1 69 60 39 51 2 170 75 67 57 43 43
4 0 10 15 11 9 43 21 11 31 25 52 52 74 64 102 16 9 7 16 18 14 356 10 11 66 2 50 344 343 346 211 358 337 23 74 22 10 322 78 75 71 53 52 41
3 354 7 10 3 344 15 19 12 53 53 56 52 73 87 23 15 14 5 7 25 5 352 351 359 45 49 104 337 339 36 54 329 0 316 72 56 354 350 70 62 64 62 49 38
359 352 358 3 356 342 246 49 45 55 49 45 47 89 42 356 6 358 355 353 335 340 314 317 19 77 2 26 25 17 349 341 162 11 10 46 152 8 10 45 47 46 51 62 54
346 350 358 353 354 355 304 249 62 71 24 47 34 56 25 329 318 345 355 342 305 323 357 39 53 64 23 39 74 316 345 333 10 335 18 50 104 58 32 47 43 46 34 33 37
337 345 359 353 1 38 62 109 47 358 38 97 281 105 358 329 333 5 352 329 317 35 61 35 58 30 333 16 331 293 22 348 319 321 20 340 146 121 83 50 36 38 39 34 25
333 344 359 360 12 30 60 77 122 134 86 29 45 91 344 352 1 349 4 57 42 35 357 39 53 314 309 31 358 35 45 341 310 336 339 318 285 145 124 119 94 66 42 32 13
327 345 357 25 12 37 76 97 115 117 88 17 331 65 324 11 56 329 15 349 46 43 45 93 272 309 352 35 25 66 73 315 279 317 291 310 322 155 145 120 101 68 67 26 10
319 347 359 37 38 51 52 92 81 45 80 329 342 354 5 105 34 318 8 72 31 70 69 73 347 354 45 65 23 83 9 325 316 14 320 87 285 196 192 136 90 78 71 31 8
309 339 14 50 107 90 103 100 38 10 42 326 320 303 292 89 256 353 7 32 72 21 82 276 360 0 19 336 340 254 320 279 284 323 16 340 61 298 168 168 123 95 82 26 19
292 343 351 103 85 108 111 92 20 45 258 341 308 341 98 27 51 325 27 39 55 54 33 105 134 63 272 286 253 304 310 222 323 70 36 284 106 273 239 183 155 45 24 17 28
238 336 10 156 140 123 123 60 34 124 349 250 324 352 74 28 48 40 70 16 58 57 358 347 360 319 345 333 2 9 37 353 8 15 229 317 33 246 202 175 160 179 289 53 32
239 281 84 131 127 136 107 57 91 212 215 234 130 355 97 337 67 16 83 43 36 64 79 107 344 5 342 66 224 337 64 132 189 322 289 321 253 277 176 175 208 213 175 98 51
205 181 174 149 142 156 81 71 211 194 168 150 62 79 310 150 110 87 73 151 105 111 134 93 299 312 55 328 45 319 40 279 97 52 14 257 274 291 261 275 266 220 108 78 40
191 182 215 174 149 125 77 224 195 219 143 147 152 150 196 189 123 121 205 157 134 69 131 222 19 283 311 6 334 85 242 28 360 40 335 304 299 244 286 14 30 46 127 92 47
167 101 170 165 133 53 169 210 198 194 130 150 177 147 200 186 152 135 116 350 145 173 100 127 106 291 10 312 179 28 1 358 127 130 153 295 274 218 197 196 296 302 224 178 11
167 153 162 160 71 350 162 182 160 172 197 147 125 174 166 178 147 127 137 180 144 161 196 188 145 224 225 260 15 98 227 137 128 278 233 156 275 260 185 184 214 264 271 196 79
171 125 93 256 149 245 300 139 166 151 194 170 161 171 147 170 106 131 134 108 157 181 187 181 323 11 347 352 357 210 197 154 114 83 220 144 261 310 284 271 263 260 257 284 303
162 131 32 281 98 150 149 206 185 205 172 168 130 117 104 53 24 155 191 133 153 79 137 103 113 168 197 211 134 188 248 196 136 129 221 230 287 280 274 268 276 271 246 264 283
187 222 174 175 239 188 175 152 146 174 208 168 59 199 161 127 35 193 145 94 124 189 186 139 200 171 257 256 265 224 192 206 187 197 175 254 233 282 268 262 265 273 252 236 257
149 165 138 152 136 148 166 212 165 167 151 217 211 189 179 158 187 188 159 136 197 180 193 195 264 89 293 336 289 263 235 208 228 256 273 268 283 266 254 127 290 270 232 232 243
158 167 166 155 165 176 192 181 188 139 235 195 174 133 176 182 116 83 99 111 149 157 189 174 136 84 274 310 325 321 222 187 192 217 160 183 226 218 224 225 250 256 216 227 225
Height
851 851 850 847 847 843 841 840 838 837 836 835 831 829 828 828 829 826 824 835 829 822 817 812 808 806 804 803 803 804 829 838 834 830 831 818 815 810 812 816 816 826 829 828 813
852 850 849 847 847 845 841 841 840 838 837 834 831 829 829 829 828 829 837 832 827 823 818 815 813 811 812 812 812 821 840 837 833 831 832 825 823 820 822 826 827 825 825 826 817
851 851 849 849 847 845 843 841 843 839 837 835 832 830 829 829 829 837 835 831 826 821 819 817 815 815 820 820 823 826 842 836 834 831 828 827 828 826 829 838 840 840 837 833 826
850 850 848 846 846 846 842 841 841 841 838 836 834 831 830 829 843 840 837 832 828 824 819 819 817 818 827 831 827 839 836 834 834 831 829 830 828 837 836 846 843 842 842 837 835
852 851 849 846 845 844 842 842 841 841 838 837 835 831 830 836 846 842 839 835 831 827 825 823 826 826 832 832 834 838 837 836 834 830 831 831 836 839 846 845 841 841 841 839 842
854 851 848 847 846 845 842 839 842 840 839 838 836 831 831 847 847 844 840 838 833 830 830 829 832 831 834 838 840 838 837 840 839 835 832 836 841 836 843 845 842 841 842 843 844
854 852 848 846 846 846 844 842 839 840 839 838 837 835 838 851 847 844 841 838 837 836 833 832 832 831 834 841 839 837 844 841 842 839 835 835 847 851 845 843 845 844 844 843 845
854 853 848 846 845 846 844 841 839 840 839 838 838 836 847 848 847 844 841 840 839 836 834 833 832 833 837 839 840 843 843 854 847 844 838 837 859 851 846 846 848 849 849 847 846
853 853 849 846 845 845 844 842 841 841 840 839 839 836 850 849 847 845 842 842 839 837 835 834 834 841 844 849 857 859 862 854 849 846 846 843 855 853 850 849 854 854 852 850 848
854 852 848 847 845 843 843 842 841 841 841 840 840 843 850 855 850 847 843 842 842 838 836 837 847 860 859 863 886 868 863 858 856 853 849 852 858 856 855 855 859 858 856 853 852
854 851 847 847 845 842 843 842 845 846 847 859 856 854 856 853 851 848 845 842 842 843 851 851 867 876 869 861 858 859 862 867 856 850 852 849 854 858 859 861 861 860 859 857 855
853 851 847 846 847 843 843 844 847 850 860 858 856 856 856 855 856 851 848 849 853 859 851 866 875 866 861 861 862 857 865 874 861 849 853 852 852 856 857 858 859 860 860 859 857
853 851 847 845 846 846 844 848 849 849 857 860 860 857 858 857 862 860 856 855 859 864 867 875 869 863 859 869 866 870 874 877 874 859 851 853 859 858 854 857 859 859 860 859 857
853 849 848 845 850 847 850 850 850 851 877 865 862 861 859 857 864 861 859 861 862 867 866 873 869 867 866 868 871 866 868 868 867 872 874 854 883 858 856 859 860 863 862 860 858
852 849 849 845 848 848 852 850 851 853 883 866 864 861 858 860 865 864 862 860 867 869 870 880 877 876 873 874 872 870 867 870 866 869 866 859 887 862 856 860 860 862 861 859 858
851 849 848 848 849 850 849 851 853 870 877 876 866 864 861 861 863 863 864 865 868 869 873 875 874 877 877 872 871 868 865 866 865 874 900 863 874 867 857 853 857 859 859 858 857
849 849 848 848 850 849 849 852 870 874 881 871 869 866 866 867 865 868 875 883 891 897 913 888 876 875 875 876 870 875 885 925 908 909 898 858 876 860 852 855 856 857 855 856 856
851 849 848 849 849 850 850 862 869 886 886 871 866 867 872 869 867 867 871 889 890 902 923 919 902 885 880 885 887 882 884 922 916 901 899 874 865 850 852 854 852 853 852 855 856
850 849 848 850 849 851 854 876 864 874 867 869 869 877 877 868 867 868 875 896 891 893 911 930 902 882 882 883 886 886 902 884 915 923 906 880 852 853 852 853 853 853 854 856 856
850 849 848 848 850 851 863 860 875 865 859 861 870 877 888 867 867 864 874 880 888 890 894 909 908 898 883 882 882 882 882 906 918 934 921 888 871 858 850 848 851 852 855 855 855
848 850 847 848 850 856 865 866 868 860 859 864 879 871 860 865 863 864 873 881 884 891 894 905 919 902 894 901 891 893 905 884 892 901 922 932 875 856 846 849 850 852 853 853 853
844 854 847 847 863 874 872 865 856 862 862 861 863 862 862 865 865 864 868 879 883 886 889 896 908 919 907 894 884 884 884 883 913 915 916 907 890 846 849 848 848 850 849 851 851
843 843 848 848 856 876 870 857 854 862 863 862 861 860 860 863 874 866 873 875 883 884 889 892 912 934 911 907 894 895 884 881 893 912 922 921 885 852 851 850 850 849 849 851 851
841 843 849 849 848 853 864 865 859 855 856 855 857 859 864 878 870 874 879 876 885 886 885 886 921 909 898 884 892 901 902 884 899 936 910 897 881 862 860 864 854 852 851 852 852
832 826 824 844 846 846 844 849 854 860 854 854 858 857 861 888 892 882 875 883 885 888 888 890 912 927 912 898 893 892 896 900 898 887 902 890 895 853 860 856 853 853 849 850 850
819 823 824 828 825 836 836 847 843 850 850 856 855 854 855 862 859 877 875 877 887 891 893 889 905 919 918 909 905 905 892 896 905 906 888 874 866 843 844 846 852 852 850 849 848
802 807 803 817 824 819 827 827 831 834 842 839 844 851 855 853 860 864 868 868 877 887 892 894 903 928 912 916 918 889 884 882 883 878 877 884 853 839 839 836 842 840 846 846 844